Overview Statistics Trail Chart Weather Telemetry Raw packets
 

This is the latest recevied weather packets stored in our database for station/object KA6UPU-1. If no packets are shown the sender has not sent any weather packets the latest 10 day(s).

<< 70 71 72 73 74 75 76 >>
Time Temp. Humidity Pressure Rain* Wind** Luminosity Snow
1788056779 18.89° C 66% 1011.6 hPa 0 mm - - -
1788056479 19.44° C 66% 1011.5 hPa 0 mm - - -
1788056179 19.44° C 65% 1011.5 hPa 0 mm - - -
1788055879 19.44° C 64% 1011.6 hPa 0 mm - - -
1788055279 20° C 63% 1011.7 hPa 0 mm - - -
1788054979 20.56° C 62% 1011.8 hPa 0 mm - - -
1788054679 20.56° C 61% 1011.8 hPa 0 mm - - -
1788054381 21.11° C 61% 1011.8 hPa 0 mm - - -
1788053479 21.67° C 57% 1011.5 hPa 0 mm - - -
1788053179 21.67° C 57% 1011.6 hPa 0 mm - - -
1788052579 22.22° C 56% 1011.6 hPa 0 mm - - -
1788052279 22.22° C 55% 1011.7 hPa 0 mm - - -
1788051979 22.78° C 54% 1011.6 hPa 0 mm - - -
1788051679 22.78° C 53% 1011.7 hPa 0 mm - - -
1788051379 23.33° C 52% 1011.7 hPa 0 mm - - -
1788051079 23.89° C 51% 1011.7 hPa 0 mm - - -
1788050779 23.89° C 50% 1011.8 hPa 0 mm - - -
1788050179 24.44° C 48% 1011.7 hPa 0 mm - - -
1788049580 25° C 46% 1011.9 hPa 0 mm - - -
1788049279 25.56° C 45% 1011.9 hPa 0 mm - - -
1788048679 26.11° C 42% 1012.1 hPa 0 mm - - -
1788047779 27.22° C 40% 1012 hPa 0 mm - - -
1788047180 27.78° C 39% 1012 hPa 0 mm - - -
1788046879 27.78° C 39% 1012 hPa 0 mm - - -
1788046579 27.78° C 39% 1012.1 hPa 0 mm - - -

* Rain latest hour (hover to see other rain measurements)
** Current wind speed in m/s (hover to see current wind gust speed)